User: anonymous   Login
Location: Unspecified
(0.0000°N, 0.0000°E)
Time: 19:44:00
(UTC+00:00)
Language:

Meteosat 1 - Orbit

View from above orbital plane
View from above orbital plane
View from above satellite
View from above satellite

Ground track
Ground track

The orbit data is extracted from the following two-line orbital elements,

1 10489U 77108A   19341.15188289  .00000072  00000-0  00000+0 0  9993
2 10489  10.7616 309.7643 0014284  20.3043 171.3635  1.00282634113353
Epoch (UTC): 07 December 2019 03:38:42
Eccentricity: 0.0014284
inclination: 10.7616°
perigee height: 35723 km
apogee height: 35843 km
right ascension of ascending node: 309.7643°
argument of perigee: 20.3043°
revolutions per day: 1.00282634
mean anomaly at epoch: 171.3635°
orbit number at epoch: 11335

The dashed part of the orbit path shows where the satellite is in the earth's shadow,  

DLR